Weather reports worldwide

Advertisment
Charlwood, United Kingdom (3769): temperature & dewpoint: 18.03.2019 16:00:00 - 24.03.2019 16:00:00 (GMT)Charlwood, United Kingdom (3769): temperature -20cm & temperature -100cm: 18.03.2019 16:00:00 - 24.03.2019 16:00:00 (GMT)Charlwood, United Kingdom (3769): wind speed: 18.03.2019 16:00:00 - 24.03.2019 16:00:00 (GMT)Charlwood, United Kingdom (3769): wind direction: 18.03.2019 16:00:00 - 24.03.2019 16:00:00 (GMT)Charlwood, United Kingdom (3769): reduced air pressure: 18.03.2019 16:00:00 - 24.03.2019 16:00:00 (GMT)Charlwood, United Kingdom (3769): visibility: 18.03.2019 16:00:00 - 24.03.2019 16:00:00 (GMT)Charlwood, United Kingdom (3769): sunshine duration: 18.03.2019 16:00:00 - 24.03.2019 16:00:00 (GMT)Charlwood, United Kingdom (3769): precipitation: 18.03.2019 16:00:00 - 24.03.2019 16:00:00 (GMT)
Date & Time tt [°C] td [°C] tt -20cm [°C] tt -100cm [°C] ff [km/h] ff [kn] dd ppp [hPa] vv [km] sd [min] rr [mm]
24.03.2019 16:00:00 14,0 -0,1 - - 9 5 NW 1028,3 30 60 0,0
24.03.2019 15:00:00 14,4 2,2 - - 8 4 NW 1028,6 30 60 0,0
24.03.2019 14:00:00 13,4 2,1 - - 8 4 W 1029,1 21 60 0,0
24.03.2019 13:00:00 12,5 1,8 - - 8 4 N 1030,1 20 60 0,0
24.03.2019 12:00:00 11,5 2,3 - - 8 4 NW 1030,7 17 60 0,0
24.03.2019 11:00:00 10,8 2,7 - - 8 4 NNW 1031,3 30 60 0,0
24.03.2019 10:00:00 9,1 1,6 - - 9 5 N 1031,7 22 60 0,0
24.03.2019 09:00:00 6,2 5,8 9,0 8,4 4 2 N 1031,7 13 54 0,0
24.03.2019 08:00:00 1,7 1,3 - - 2 1 W 1031,8 7 0 0,0
24.03.2019 07:00:00 0,5 0,0 - - 2 1 N 1031,6 5 0 0,0
24.03.2019 06:00:00 -0,3 -0,9 - - 2 1 WNW 1031,2 2,6 0 0,0
24.03.2019 05:00:00 -0,8 -1,4 - - 0 0 N 1030,8 6 0 0,0
24.03.2019 04:00:00 -0,3 -1,1 - - 2 1 W 1031,4 7 0 0,0
24.03.2019 03:00:00 0,2 -0,7 - - 4 2 SW 1031,6 8 0 0,0
24.03.2019 02:00:00 1,2 0,1 - - 2 1 NNW 1032,1 9 0 0,0
24.03.2019 01:00:00 1,9 0,5 - - 2 1 N 1032,5 10 0 0,0
24.03.2019 00:00:00 2,4 1,0 - - 4 2 N 1032,8 12 - 0,0
23.03.2019 23:00:00 2,8 1,0 - - 4 2 N 1032,9 12 0 0,0
23.03.2019 22:00:00 3,9 1,5 - - 5 3 NNE 1033,0 13 0 0,0
23.03.2019 21:00:00 5,3 2,2 - - 5 3 NNE 1032,9 14 0 0,0
23.03.2019 20:00:00 7,7 4,0 - - 9 5 E 1032,5 16 0 0,0
23.03.2019 19:00:00 8,8 4,5 - - 11 6 E 1032,1 19 0 0,0
23.03.2019 18:00:00 9,9 4,6 - - 13 7 E 1031,8 19 6 0,0
23.03.2019 17:00:00 10,7 5,1 - - 15 8 E 1031,7 21 0 0,0
23.03.2019 16:00:00 10,9 6,4 - - 18 10 E 1031,7 16 0 0,0
23.03.2019 15:00:00 12,4 6,4 - - 15 8 ENE 1031,7 27 0 0,0
23.03.2019 14:00:00 12,4 5,5 - - 15 8 ENE 1031,8 28 0 0,0
23.03.2019 13:00:00 11,8 4,7 - - 15 8 NNE 1032,2 19 0 0,0
23.03.2019 12:00:00 11,5 4,6 - - 13 7 NNE 1032,2 16 0 0,0
23.03.2019 11:00:00 10,2 6,5 - - 8 4 NNE 1032,2 23 0 0,0
23.03.2019 10:00:00 9,7 7,1 - - 9 5 NNE 1032,0 14 0 0,0
23.03.2019 09:00:00 9,3 7,3 9,0 8,2 11 6 NNE 1031,5 7 0 0,0
23.03.2019 08:00:00 9,3 7,6 - - 4 2 N 1031,0 7 0 0,0
23.03.2019 07:00:00 8,7 7,2 - - 4 2 N 1030,6 6 0 0,0
23.03.2019 06:00:00 8,1 7,0 - - 2 1 NE 1030,1 4,4 0 0,0
23.03.2019 05:00:00 8,2 7,0 - - 2 1 NE 1029,6 4,1 0 0,0
23.03.2019 04:00:00 8,4 7,3 - - 8 4 W 1029,5 3,5 0 0,0
23.03.2019 03:00:00 8,1 7,3 - - 4 2 W 1029,1 3,1 0 0,0
23.03.2019 02:00:00 7,0 6,0 - - 5 3 SW 1029,0 2,5 0 0,0
23.03.2019 01:00:00 7,3 6,0 - - 8 4 SW 1028,8 3,6 0 0,0
23.03.2019 00:00:00 8,7 6,9 - - 9 5 SW 1028,5 6 - 0,0
22.03.2019 23:00:00 8,9 6,9 - - 9 5 SW 1028,6 7 0 0,0
22.03.2019 22:00:00 9,0 6,7 - - 8 4 SW 1028,4 10 0 0,0
22.03.2019 21:00:00 8,9 6,5 - - 4 2 WSW 1028,4 13 0 0,0
22.03.2019 20:00:00 9,2 6,6 - - 4 2 W 1028,3 15 0 0,0
22.03.2019 19:00:00 9,2 6,6 - - 5 3 W 1028,3 12 0 0,0
22.03.2019 18:00:00 9,1 6,5 - - 5 3 WSW 1027,6 14 0 0,0
22.03.2019 17:00:00 9,2 6,4 - - 9 5 WSW 1027,4 17 0 0,0
22.03.2019 16:00:00 9,4 6,5 - - 9 5 SW 1027,5 16 0 0,0
22.03.2019 15:00:00 9,5 6,4 - - 11 6 SW 1027,7 15 0 0,0
22.03.2019 14:00:00 9,5 6,7 - - 11 6 SW 1027,9 11 0 0,0
22.03.2019 13:00:00 9,6 6,8 - - 9 5 SW 1028,4 11 0 0,0
22.03.2019 12:00:00 9,4 6,9 - - 9 5 WSW 1028,9 10 0 0,0
22.03.2019 11:00:00 9,0 6,6 - - 11 6 WSW 1029,3 10 0 0,0
22.03.2019 10:00:00 8,7 6,5 - - 8 4 SW 1029,5 10 0 0,0
22.03.2019 09:00:00 8,3 6,1 9,2 8,2 11 6 SSW 1029,6 11 0 0,0
22.03.2019 08:00:00 8,3 6,2 - - 8 4 SSW 1029,7 10 0 0,0
22.03.2019 07:00:00 8,2 6,1 - - 9 5 SW 1029,7 12 0 0,0
22.03.2019 06:00:00 8,2 6,2 - - 11 6 SSW 1029,4 14 0 0,0
22.03.2019 05:00:00 8,1 5,9 - - 5 3 SW 1029,6 13 0 0,0
22.03.2019 04:00:00 8,1 5,6 - - 9 5 SSW 1030,1 15 0 0,0
22.03.2019 03:00:00 8,6 6,0 - - 15 8 S 1030,4 13 0 0,0
22.03.2019 02:00:00 8,9 7,0 - - 8 4 SW 1030,7 8 0 0,0
22.03.2019 01:00:00 9,1 6,8 - - 5 3 S 1030,6 8 0 0,0
22.03.2019 00:00:00 9,7 7,2 - - 4 2 S 1030,9 10 - 0,0
21.03.2019 23:00:00 10,1 7,7 - - 5 3 S 1031,6 12 0 0,0
21.03.2019 22:00:00 10,1 7,6 - - 4 2 S 1032,0 14 0 0,0
21.03.2019 21:00:00 10,4 7,8 - - 4 2 SW 1032,6 19 0 0,0
21.03.2019 20:00:00 10,8 8,0 - - 5 3 SW 1032,4 18 0 0,0
21.03.2019 19:00:00 11,3 7,9 - - 8 4 SSW 1032,3 30 0 0,0
21.03.2019 18:00:00 12,3 7,3 - - 2 1 WNW 1032,2 50 0 0,0
21.03.2019 17:00:00 12,8 6,9 - - 2 1 WNW 1032,1 50 0 0,0
21.03.2019 16:00:00 13,3 7,8 - - 2 1 SSE 1032,1 50 0 0,0
21.03.2019 15:00:00 12,7 8,3 - - 4 2 N 1032,6 50 0 0,0
21.03.2019 14:00:00 12,5 8,0 - - 4 2 W 1033,1 50 0 0,0
21.03.2019 13:00:00 12,3 8,1 - - 5 3 WSW 1033,8 40 0 0,0
21.03.2019 12:00:00 11,5 7,8 - - 5 3 WSW 1034,2 40 0 0,0
21.03.2019 11:00:00 11,1 7,9 - - 4 2 W 1034,4 26 0 0,0
21.03.2019 10:00:00 10,6 7,6 - - 8 4 W 1034,3 45 0 0,0
21.03.2019 09:00:00 9,9 7,9 8,7 8,2 8 4 SSW 1034,3 11 0 0,0
21.03.2019 08:00:00 9,4 8,0 - - 5 3 SW 1034,1 11 0 0,0
21.03.2019 07:00:00 8,8 7,4 - - 4 2 W 1033,8 8 0 0,0
21.03.2019 06:00:00 8,7 7,2 - - 5 3 WSW 1033,5 9 0 0,0
21.03.2019 05:00:00 8,6 7,0 - - 5 3 SW 1033,1 9 0 0,0
21.03.2019 04:00:00 8,1 6,6 - - 4 2 WNW 1033,0 10 0 0,0
21.03.2019 03:00:00 8,2 6,4 - - 0 0 N 1033,2 10 0 0,0
21.03.2019 02:00:00 8,3 6,5 - - 9 5 W 1033,4 13 0 0,0
21.03.2019 01:00:00 8,5 7,0 - - 9 5 WSW 1033,7 12 0 0,0
21.03.2019 00:00:00 8,8 7,2 - - 11 6 SW 1033,8 15 - 0,0
20.03.2019 23:00:00 9,1 7,3 - - 8 4 SW 1033,9 12 0 0,0
20.03.2019 22:00:00 9,4 7,2 - - 8 4 W 1033,9 23 0 0,0
20.03.2019 21:00:00 9,6 6,9 - - 11 6 WSW 1034,0 45 0 0,0
20.03.2019 20:00:00 10,1 7,7 - - 9 5 SW 1033,6 24 0 0,0
20.03.2019 19:00:00 10,5 7,8 - - 8 4 SW 1033,4 35 0 0,0
20.03.2019 18:00:00 11,0 7,2 - - 13 7 WSW 1033,1 50 0 0,0
20.03.2019 17:00:00 11,4 7,9 - - 11 6 SSW 1032,7 50 0 0,0
20.03.2019 16:00:00 11,9 8,2 - - 11 6 SW 1032,7 35 0 0,0
20.03.2019 15:00:00 11,9 8,0 - - 13 7 SW 1032,8 50 0 0,0
20.03.2019 14:00:00 11,9 7,9 - - 13 7 WSW 1032,9 50 0 0,0
20.03.2019 13:00:00 12,2 7,9 - - 13 7 SW 1033,1 40 0 0,0
20.03.2019 12:00:00 11,5 8,0 - - 13 7 WSW 1033,3 35 0 0,0
20.03.2019 11:00:00 10,6 8,0 - - 13 7 SW 1033,4 29 0 0,0
20.03.2019 10:00:00 9,9 7,8 - - 8 4 WSW 1033,5 19 0 0,0
20.03.2019 09:00:00 9,5 7,4 8,4 8,0 8 4 WSW 1033,0 30 0 0,0
20.03.2019 08:00:00 9,3 8,2 - - 5 3 WSW 1032,6 12 0 0,0
20.03.2019 07:00:00 8,2 7,4 - - 4 2 WSW 1032,0 4,9 0 0,0
20.03.2019 06:00:00 7,9 7,0 - - 5 3 SW 1031,7 4,5 0 0,0
20.03.2019 05:00:00 8,0 6,9 - - 2 1 WSW 1031,3 5 0 0,0
20.03.2019 04:00:00 8,3 7,1 - - 4 2 SSW 1030,9 7 0 0,0
20.03.2019 03:00:00 8,3 7,0 - - 4 2 SW 1030,9 9 0 0,0
20.03.2019 02:00:00 8,4 7,0 - - 5 3 SW 1030,9 10 0 0,0
20.03.2019 01:00:00 8,2 6,8 - - 8 4 SSW 1030,8 11 0 0,0
20.03.2019 00:00:00 8,6 7,1 - - 8 4 WSW 1030,7 11 - 0,0
19.03.2019 23:00:00 8,4 7,2 - - 5 3 SW 1030,6 11 0 0,0
19.03.2019 22:00:00 8,5 7,2 - - 8 4 SW 1030,5 13 0 0,0
19.03.2019 21:00:00 8,5 6,5 - - 8 4 SW 1029,8 24 0 0,0
19.03.2019 20:00:00 9,4 7,2 - - 8 4 SW 1029,9 19 0 0,0
19.03.2019 19:00:00 9,6 7,2 - - 4 2 SW 1029,5 30 0 0,0
19.03.2019 18:00:00 10,0 7,3 - - 9 5 WSW 1028,6 25 0 0,0
19.03.2019 17:00:00 9,7 7,3 - - 13 7 SW 1028,3 5 0 0,0
19.03.2019 16:00:00 11,1 6,3 - - 13 7 SW 1027,9 40 0 0,0
19.03.2019 15:00:00 11,2 6,0 - - 15 8 SW 1027,8 50 0 0,0
19.03.2019 14:00:00 11,9 6,6 - - 13 7 SW 1027,9 45 0 0,0
19.03.2019 13:00:00 12,0 6,6 - - 13 7 SW 1027,8 30 6 0,0
19.03.2019 12:00:00 11,2 6,7 - - 15 8 WSW 1028,0 35 12 0,0
19.03.2019 11:00:00 11,2 7,1 - - 11 6 SW 1027,9 22 24 0,0
19.03.2019 10:00:00 9,5 7,1 - - 9 5 WSW 1027,7 22 0 0,0
19.03.2019 09:00:00 8,6 8,1 7,9 8,0 5 3 SW 1027,4 12 12 0,0
19.03.2019 08:00:00 6,5 6,1 - - 5 3 WSW 1027,1 6 0 0,0
19.03.2019 07:00:00 5,6 5,2 - - 4 2 WSW 1026,6 5 0 0,0
19.03.2019 06:00:00 5,2 4,9 - - 5 3 SW 1026,2 6 0 0,0
19.03.2019 05:00:00 3,1 2,7 - - 2 1 WSW 1025,9 2,5 0 0,0
19.03.2019 04:00:00 3,1 2,7 - - 0 0 N 1025,6 3,4 0 0,0
19.03.2019 03:00:00 2,7 2,2 - - 2 1 N 1025,4 3,7 0 0,0
19.03.2019 02:00:00 2,0 1,5 - - 2 1 SSE 1025,4 5 0 0,0
19.03.2019 01:00:00 1,3 0,8 - - 4 2 SW 1025,3 4,7 0 0,0
19.03.2019 00:00:00 1,3 0,7 - - 2 1 SSE 1025,0 1,4 - 0,0
18.03.2019 23:00:00 2,2 1,6 - - 2 1 WNW 1025,0 2,6 0 0,0
18.03.2019 22:00:00 2,0 1,2 - - 2 1 WSW 1024,6 5 0 0,0
18.03.2019 21:00:00 3,2 2,3 - - 4 2 WSW 1024,3 8 0 0,0
18.03.2019 20:00:00 4,5 3,5 - - 4 2 SW 1023,8 27 0 0,0
18.03.2019 19:00:00 4,9 3,3 - - 4 2 WSW 1023,1 50 0 0,0
18.03.2019 18:00:00 7,2 4,0 - - 5 3 NW 1022,8 7 0 0,2
18.03.2019 17:00:00 8,2 2,9 - - 11 6 W 1022,0 35 0 0,0
18.03.2019 16:00:00 10,1 1,1 - - 9 5 W 1021,3 45 0 0,0

tt = temperature
td = dewpoint
tt -20cm = temperature -20cm
tt -100cm = temperature -100cm
ff = wind speed
dd = wind direction
ppp = reduced air pressure
vv = visibility
sd = sunshine duration
rr = precipitation

Next stations